TimeEDT,TemperatureF,Dew PointF,Humidity,Sea Level PressureIn,VisibilityMPH,Wind Direction,Wind SpeedMPH,Gust SpeedMPH,PrecipitationIn,Events,Conditions,WindDirDegrees,DateUTC
12:53 AM,28.0,17.1,63,30.27,10.0,WNW,13.8,-,N/A,,Clear,290,2013-03-28 04:53:00
1:53 AM,26.1,19.0,75,30.28,10.0,NW,9.2,-,N/A,,Clear,310,2013-03-28 05:53:00
2:53 AM,21.0,17.1,85,30.29,10.0,NW,6.9,-,N/A,,Clear,310,2013-03-28 06:53:00
3:53 AM,21.0,18.0,88,30.28,10.0,NW,6.9,-,N/A,,Clear,310,2013-03-28 07:53:00
4:53 AM,21.0,18.0,88,30.29,10.0,NW,9.2,-,N/A,,Clear,310,2013-03-28 08:53:00
5:53 AM,21.0,19.0,92,30.29,10.0,NW,10.4,-,N/A,,Clear,310,2013-03-28 09:53:00
6:53 AM,19.0,17.1,92,30.29,10.0,NW,10.4,-,N/A,,Clear,310,2013-03-28 10:53:00
7:53 AM,21.0,19.0,92,30.30,10.0,WNW,10.4,-,N/A,,Clear,300,2013-03-28 11:53:00
8:53 AM,25.0,21.9,88,30.31,10.0,North,-9999.0,-,N/A,,Clear,0,2013-03-28 12:53:00
9:53 AM,28.9,23.0,78,30.31,10.0,NW,9.2,-,N/A,,Clear,310,2013-03-28 13:53:00
10:53 AM,35.1,25.0,67,30.32,10.0,WNW,6.9,-,N/A,,Clear,290,2013-03-28 14:53:00
11:53 AM,37.9,19.9,48,30.31,10.0,NW,6.9,-,N/A,,Clear,310,2013-03-28 15:53:00
12:53 PM,37.9,23.0,55,30.32,10.0,NNW,8.1,-,N/A,,Clear,340,2013-03-28 16:53:00
1:53 PM,37.0,25.0,62,30.32,10.0,WNW,11.5,-,N/A,,Clear,300,2013-03-28 17:53:00
2:53 PM,37.9,23.0,55,30.31,10.0,NW,8.1,-,N/A,,Clear,320,2013-03-28 18:53:00
3:53 PM,37.9,21.0,51,30.30,10.0,WNW,9.2,-,N/A,,Clear,300,2013-03-28 19:53:00
4:53 PM,37.9,19.9,48,30.30,10.0,NW,9.2,-,N/A,,Clear,320,2013-03-28 20:53:00
5:53 PM,37.0,21.9,54,30.30,10.0,NW,9.2,-,N/A,,Clear,320,2013-03-28 21:53:00
6:53 PM,37.0,21.9,54,30.30,10.0,NW,6.9,-,N/A,,Clear,310,2013-03-28 22:53:00
7:53 PM,34.0,21.0,59,30.30,10.0,WNW,6.9,-,N/A,,Clear,300,2013-03-28 23:53:00
8:53 PM,28.9,21.0,72,30.30,10.0,NNW,5.8,-,N/A,,Clear,330,2013-03-29 00:53:00
9:53 PM,26.1,19.9,78,30.30,10.0,WNW,5.8,-,N/A,,Clear,300,2013-03-29 01:53:00
10:53 PM,25.0,18.0,75,30.30,10.0,NW,8.1,-,N/A,,Clear,310,2013-03-29 02:53:00
11:53 PM,23.0,16.0,74,30.30,10.0,NW,9.2,-,N/A,,Clear,320,2013-03-29 03:53:00